Barter Island, AK

2:42 AM AKDT on June 26, 2017 (GMT -0800)
Barter Island LRRS

Weather History for PABA - December, 2012

Change the Weather History Date:

Sunday, December 16, 2012

  Actual Average Record
Temperature  
Mean Temperature -26 °F -  
Max Temperature -26 °F 2 °F 24 °F (2008)
Min Temperature -29 °F -6 °F -32 °F (2011)
Degree Days  
Heating Degree Days 91    
Moisture  
Dew Point -31 °F    
Average Humidity 75    
Maximum Humidity 78    
Minimum Humidity 73    
Precipitation  
Precipitation 0.00 in - - ()
Sea Level Pressure  
Sea Level Pressure 29.74 in    
Wind  
Wind Speed 8 mph (ESE)    
Max Wind Speed 13 mph    
Max Gust Speed -    
Visibility 8 miles    
Events      
Averages and records for this station are not official NWS values.
T = Trace of Precipitation, MM = Missing Value Source: NWS Daily Summary

Daily Weather History Graph

Daily Weather History Graph

Search for Another Location

Airport or City:

Trip Planner

Search our weather history database for the weather conditions in past years. The results will help you decide how hot, cold, wet, or windy it might be!

Date:

Astronomy

Dec. 31, 1969 Rise Set
Actual Time Sun does not set Sun does not set
Civil Twilight 10:27 AM AKST 2:33 PM AKST
Nautical Twilight 8:37 AM AKST 4:22 PM AKST
Astronomical Twilight 7:17 AM AKST 5:43 PM AKST
Moon 12:14 PM AKST (12/16) 8:02 PM AKST (12/16)
Length of Visible Light 4h 05m
Length of Day
0h 00m
Waxing Crescent, 17% of the Moon is Illuminated
Dec 16
Waxing Crescent
Dec 19
First Quarter
Dec 28
Full
Jan 4
Last Quarter
Jan 11
New

Hourly Weather History & Observations

Time (AKST) Temp. Windchill Dew Point Humidity Pressure Visibility Wind Dir Wind Speed Gust Speed Precip Events Conditions
12:01 AM -29.0 °F -43.8 °F -35.0 °F 73% 29.76 in 10.0 mi East 4.6 mph - N/A   Clear
1:01 AM -29.0 °F -47.9 °F -35.0 °F 73% 29.75 in 10.0 mi ESE 6.9 mph - N/A   Clear
2:01 AM -29.0 °F -46.0 °F -35.0 °F 73% 29.75 in 10.0 mi ESE 5.8 mph - N/A   Clear
3:01 AM -29.0 °F -46.0 °F -35.0 °F 73% 29.75 in 10.0 mi East 5.8 mph - N/A   Clear
4:01 AM -27.9 °F -46.6 °F -34.1 °F 73% 29.75 in 10.0 mi ESE 6.9 mph - N/A   Clear
5:01 AM -27.0 °F -47.1 °F -33.0 °F 73% 29.74 in 10.0 mi ESE 8.1 mph - N/A   Clear
6:01 AM -27.9 °F -46.6 °F -33.0 °F 77% 29.74 in 10.0 mi ESE 6.9 mph - N/A   Clear
7:01 AM -27.0 °F -47.1 °F -33.0 °F 73% 29.73 in 10.0 mi East 8.1 mph - N/A   Clear
8:01 AM -26.0 °F -45.8 °F -32.1 °F 73% 29.74 in 10.0 mi ESE 8.1 mph - N/A   Clear
9:01 AM -27.0 °F -48.5 °F -32.1 °F 77% 29.73 in 10.0 mi ESE 9.2 mph - N/A   Clear
10:01 AM -26.0 °F -47.2 °F -31.0 °F 77% 29.73 in 10.0 mi ESE 9.2 mph - N/A   Clear
11:01 AM -26.0 °F -47.2 °F -31.0 °F 77% 29.72 in 10.0 mi ESE 9.2 mph - N/A   Clear
12:01 PM -25.1 °F -47.4 °F -29.9 °F 78% 29.72 in 8.0 mi ESE 10.4 mph - N/A   Clear
1:01 PM -24.0 °F -44.8 °F -29.0 °F 77% 29.73 in 8.0 mi ESE 9.2 mph - N/A   Clear
2:01 PM -24.0 °F -47.2 °F -29.9 °F 74% 29.72 in 7.0 mi ESE 11.5 mph - N/A   Clear
3:01 PM -24.0 °F -46.0 °F -29.0 °F 77% 29.73 in 9.0 mi ESE 10.4 mph - N/A   Clear
4:01 PM -24.0 °F -46.0 °F -29.0 °F 77% 29.73 in 7.0 mi ESE 10.4 mph - N/A   Clear
5:01 PM -24.0 °F -47.2 °F -29.0 °F 77% 29.73 in 5.0 mi ESE 11.5 mph - N/A   Haze
6:01 PM -24.0 °F -48.2 °F -29.0 °F 77% 29.74 in 4.0 mi ESE 12.7 mph - N/A   Haze
7:01 PM -23.1 °F -47.1 °F -29.0 °F 74% 29.74 in 5.0 mi ESE 12.7 mph - N/A   Haze
8:01 PM -23.1 °F -46.0 °F -29.0 °F 74% 29.74 in 4.0 mi ESE 11.5 mph - N/A   Haze
9:01 PM -24.0 °F -44.8 °F -29.0 °F 77% 29.75 in 7.0 mi ESE 9.2 mph - N/A   Clear
10:01 PM -23.1 °F -42.3 °F -29.0 °F 74% 29.77 in 7.0 mi SE 8.1 mph - N/A   Clear
11:01 PM -24.0 °F -40.0 °F -29.0 °F 77% 29.79 in 10.0 mi ESE 5.8 mph - N/A   Clear